Location: East-View Observatory
(46.8144°N, 92.0597°W)
Time: 03:33:59
(UTC-05:00)

OTV 5 (USA 277) - Visible Passes

Search period start: 21 October 2019 00:00
Search period end: 31 October 2019 00:00
Orbit: 310 x 324 km, 54.5° (Epoch: 17 October)

Date Brightness Start Highest point End Pass type
(mag) Time Alt. Az. Time Alt. Az. Time Alt. Az.
27 Oct ? 19:27:41 10° SSE 19:27:43 10° SSE 19:27:43 10° SSE visible
28 Oct ? 19:41:00 10° SSW 19:42:19 22° S 19:42:19 22° S visible
29 Oct ? 19:55:12 10° SW 19:56:47 31° SW 19:56:47 31° SW visible
30 Oct ? 18:36:16 10° S 18:38:23 20° SE 18:40:14 12° E visible
30 Oct ? 20:09:53 10° WSW 20:11:08 22° W 20:11:08 22° W visible
